TimePST,TemperatureF,Dew PointF,Humidity,Sea Level PressureIn,VisibilityMPH,Wind Direction,Wind SpeedMPH,Gust SpeedMPH,PrecipitationIn,Events,Conditions,WindDirDegrees,DateUTC
12:53 AM,61.0,42.1,50,29.87,10.0,North,5.8,-,N/A,,Clear,10,2013-02-06 08:53:00
1:53 AM,60.1,42.1,51,29.86,10.0,NW,5.8,-,N/A,,Clear,320,2013-02-06 09:53:00
2:53 AM,59.0,41.0,51,29.86,10.0,Calm,Calm,-,N/A,,Clear,0,2013-02-06 10:53:00
3:53 AM,57.0,41.0,55,29.85,10.0,SSW,3.5,-,N/A,,Clear,200,2013-02-06 11:53:00
5:53 AM,53.1,42.1,66,29.87,10.0,WSW,3.5,-,N/A,,Clear,250,2013-02-06 13:53:00
6:53 AM,51.1,41.0,68,29.89,10.0,Variable,3.5,-,N/A,,Clear,0,2013-02-06 14:53:00
7:53 AM,59.0,41.0,51,29.91,10.0,WNW,8.1,-,N/A,,Clear,290,2013-02-06 15:53:00
8:53 AM,62.1,39.9,44,29.95,10.0,West,4.6,-,N/A,,Clear,270,2013-02-06 16:53:00
9:53 AM,66.9,37.9,34,29.95,10.0,NNW,11.5,-,N/A,,Clear,330,2013-02-06 17:53:00
10:53 AM,70.0,37.0,30,29.95,10.0,NNW,11.5,-,N/A,,Clear,330,2013-02-06 18:53:00
11:53 AM,72.0,37.0,28,29.94,10.0,NW,4.6,-,N/A,,Clear,320,2013-02-06 19:53:00
12:53 PM,75.0,34.0,22,29.91,10.0,Calm,Calm,-,N/A,,Clear,0,2013-02-06 20:53:00
1:53 PM,75.9,33.1,21,29.90,10.0,NNW,8.1,-,N/A,,Clear,330,2013-02-06 21:53:00
2:53 PM,75.9,36.0,23,29.91,10.0,NNW,9.2,-,N/A,,Clear,330,2013-02-06 22:53:00
3:53 PM,75.0,39.0,27,29.92,10.0,NW,11.5,-,N/A,,Clear,320,2013-02-06 23:53:00
4:53 PM,71.1,39.9,32,29.92,9.0,NW,11.5,-,N/A,,Clear,320,2013-02-07 00:53:00
5:53 PM,68.0,41.0,37,29.94,9.0,NW,10.4,-,N/A,,Clear,320,2013-02-07 01:53:00
6:53 PM,66.0,42.1,42,29.96,8.0,NW,11.5,-,N/A,,Clear,310,2013-02-07 02:53:00
7:53 PM,64.9,42.1,43,29.98,8.0,NW,9.2,-,N/A,,Clear,310,2013-02-07 03:53:00
8:53 PM,63.0,42.1,46,30.00,8.0,WNW,4.6,-,N/A,,Clear,300,2013-02-07 04:53:00
9:53 PM,55.9,43.0,62,30.01,8.0,SW,3.5,-,N/A,,Clear,220,2013-02-07 05:53:00
10:53 PM,57.0,42.1,57,30.03,8.0,Calm,Calm,-,N/A,,Clear,0,2013-02-07 06:53:00
11:53 PM,54.0,41.0,62,30.03,10.0,Calm,Calm,-,N/A,,Clear,0,2013-02-07 07:53:00